FW1328 Weather Reports


time (UTC)temp
C
wind
direction
speed
KPH
gust
KPH
rain 1hr
cm
rain 24hr
cm
rain mn
cm
humidity
%
barometer
mb
20260906154536 29 108 11.3 17.7 0.00 0.00 0.00 79 1012.2
20260906153040 29 150 8.0 14.5 0.00 0.00 0.00 79 1012.2
20260906151532 28 80 11.3 16.1 0.00 0.00 0.00 80 1012.0
20260906150030 28 76 9.7 17.7 0.00 0.00 0.00 80 1012.1
20260906144527 28 63 4.8 12.9 0.00 0.00 0.00 80 1011.9
20260906143027 27 88 4.8 14.5 0.00 0.00 0.00 81 1011.7
20260906141526 27 73 9.7 16.1 0.00 0.00 0.00 82 1011.8
20260906140025 27 82 4.8 16.1 0.00 0.00 0.00 82 1011.8
20260906134522 26 109 9.7 14.5 0.00 0.00 0.00 82 1011.6
20260906133019 26 84 9.7 16.1 0.00 0.00 0.00 84 1011.5
20260906131518 26 97 9.7 17.7 0.00 0.00 0.00 87 1011.3
20260906130017 25 94 9.7 19.3 0.00 0.00 0.00 89 1011.2
20260906124515 25 94 4.8 14.5 0.00 0.00 0.00 91 1011.3
20260906123014 25 62 6.4 14.5 0.00 0.00 0.00 92 1011.3
20260906121515 25 94 6.4 11.3 0.00 0.00 0.00 92 1011.1
20260906120009 25 80 4.8 12.9 0.00 0.00 0.00 91 1011.0
20260906114516 25 95 6.4 14.5 0.00 0.00 0.00 91 1010.9
20260906113007 25 74 9.7 16.1 0.00 0.00 0.00 91 1010.8
20260906111502 25 90 8.0 16.1 0.00 0.00 0.00 90 1010.8
20260906110100 26 92 4.8 12.9 0.00 0.00 0.00 89 1010.7
20260906104556 26 74 6.4 9.7 0.00 0.00 0.00 87 1010.6
20260906103057 26 82 6.4 12.9 0.00 0.00 0.00 86 1010.5
20260906101552 26 72 3.2 12.9 0.00 0.00 0.00 85 1010.3
20260906100055 26 85 6.4 12.9 0.00 0.00 0.00 84 1010.2
20260906094549 26 51 4.8 8.0 0.00 0.00 0.00 83 1010.0
20260906093047 26 66 1.6 8.0 0.00 0.00 0.00 83 1009.9
20260906091546 27 105 3.2 6.4 0.00 0.00 0.00 82 1009.6
20260906090047 27 97 3.2 11.3 0.00 0.00 0.00 81 1009.5
20260906084542 27 88 3.2 9.7 0.00 0.00 0.00 80 1009.5
20260906083047 27 88 4.8 9.7 0.00 0.00 0.00 80 1009.5
20260906081540 27 82 3.2 6.4 0.00 0.00 0.00 80 1009.4
20260906080040 27 82 3.2 9.7 0.00 0.00 0.00 79 1009.3
20260906074538 27 86 4.8 11.3 0.00 0.00 0.00 79 1009.4
20260906073036 27 90 3.2 9.7 0.00 0.00 0.00 78 1009.5
20260906071534 28 91 4.8 6.4 0.00 0.00 0.00 77 1009.6
20260906070033 28 96 3.2 11.3 0.00 0.00 0.00 77 1009.7
20260906064532 28 88 3.2 9.7 0.00 0.00 0.00 77 1009.8
20260906063028 28 92 3.2 11.3 0.00 0.00 0.00 76 1009.9
20260906061530 29 92 6.4 11.3 0.00 0.00 0.00 74 1009.9
20260906060030 28 69 3.2 6.4 0.00 0.00 0.00 75 1009.9
20260906054540 28 65 4.8 12.9 0.00 0.00 0.00 75 1009.8
20260906053025 28 40 0.0 0.0 0.00 0.00 0.00 75 1009.9
20260906051521 28 40 0.0 0.0 0.00 0.00 0.00 73 1009.8
20260906050020 29 36 0.0 0.0 0.00 0.00 0.00 73 1009.8
20260906044519 29 36 0.0 0.0 0.00 0.00 0.00 72 1009.9
20260906043020 30 36 0.0 0.0 0.00 0.00 0.00 70 1009.9
20260906041518 29 36 0.0 0.0 0.00 0.00 0.00 71 1009.9
20260906040027 29 36 0.0 0.0 0.00 0.00 0.00 72 1009.7
20260906034518 29 36 3.2 6.4 0.00 0.00 0.00 72 1009.7
20260906033034 30 111 1.6 4.8 0.00 0.00 0.00 72 1009.7
20260906031517 30 111 0.0 1.6 0.00 0.00 0.00 69 1009.6
20260906030016 30 111 0.0 1.6 0.00 0.00 0.00 68 1009.3
20260906024514 30 111 0.0 3.2 0.00 0.00 0.00 68 1009.2
20260906023015 30 111 1.6 9.7 0.00 0.00 0.00 68 1009.0
20260906021515 31 105 4.8 11.3 0.00 0.00 0.00 67 1008.8
20260906020014 31 100 4.8 11.3 0.00 0.00 0.00 68 1008.7
20260906014513 31 89 4.8 12.9 0.00 0.00 0.00 65 1008.4
20260906013122 31 30 3.2 6.4 0.00 0.00 0.00 64 1008.2
20260906011515 32 50 1.6 6.4 0.00 0.00 0.00 64 1008.2
20260906010016 32 49 3.2 8.0 0.00 0.00 0.00 62 1008.0
20260906003008 34 333 0.0 3.2 0.00 0.00 0.00 57 1007.9
20260906001507 35 332 1.6 4.8 0.00 0.00 0.00 54 1007.9
20260906000007 35 331 1.6 4.8 0.00 0.00 0.00 54 1008.0
20260905234506 35 329 1.6 4.8 0.00 0.00 0.00 53 1008.1
20260905233006 36 329 1.6 4.8 0.00 0.00 0.00 51 1008.2
20260905231505 36 322 3.2 6.4 0.00 0.00 0.00 50 1008.1
20260905230004 37 19 3.2 8.0 0.00 0.00 0.00 48 1007.9
20260905224618 37 30 1.6 8.0 0.00 0.00 0.00 45 1007.9
20260905223106 37 15 3.2 8.0 0.00 0.00 0.00 46 1008.0
20260905221533 37 355 1.6 6.4 0.00 0.00 0.00 46 1008.0
20260905220031 37 39 3.2 6.4 0.00 0.00 0.00 45 1008.1
20260905214529 37 326 1.6 11.3 0.00 0.00 0.00 44 1008.1
20260905213031 37 39 3.2 12.9 0.00 0.00 0.00 45 1008.2
20260905211540 37 309 1.6 8.0 0.00 0.00 0.00 45 1008.1
20260905210038 37 335 3.2 12.9 0.00 0.00 0.00 45 1008.4
20260905204521 37 71 3.2 12.9 0.00 0.00 0.00 46 1008.4
20260905203019 37 331 4.8 12.9 0.00 0.00 0.00 45 1008.7
20260905201520 37 333 3.2 14.5 0.00 0.00 0.00 46 1008.9
20260905200022 37 14 6.4 14.5 0.00 0.00 0.00 47 1009.1
20260905194510 36 70 4.8 14.5 0.00 0.00 0.00 48 1009.2
20260905193010 37 50 3.2 14.5 0.00 0.00 0.00 46 1009.3
20260905191505 36 26 3.2 14.5 0.00 0.00 0.00 47 1009.6
20260905190003 37 324 3.2 16.1 0.00 0.00 0.00 46 1009.7
20260905184501 36 328 1.6 12.9 0.00 0.00 0.00 50 1009.9
20260905183001 36 289 4.8 14.5 0.00 0.00 0.00 48 1010.1
20260905181559 36 11 3.2 14.5 0.00 0.00 0.00 49 1010.2
20260905180103 36 24 3.2 12.9 0.00 0.00 0.00 53 1010.2
20260905174553 35 342 9.7 16.1 0.00 0.00 0.00 54 1010.4
20260905173106 35 336 3.2 14.5 0.00 0.00 0.00 57 1010.4
20260905171547 35 254 4.8 12.9 0.00 0.00 0.00 57 1010.6
20260905170057 34 309 6.4 17.7 0.00 0.00 0.00 59 1010.8
20260905164544 34 321 3.2 12.9 0.00 0.00 0.00 60 1011.0
20260905163043 34 311 8.0 14.5 0.00 0.00 0.00 60 1011.2
20260905161559 33 300 6.4 12.9 0.00 0.00 0.00 62 1011.2
20260905161514 33 281 6.4 12.9 0.00 0.00 0.00 62 1011.2
20260905160036 33 279 4.8 12.9 0.00 0.00 0.00 63 1011.1